| time (UTC) | temp C | wind direction | speed KPH | gust KPH | rain 1hr cm | rain 24hr cm | rain mn cm | humidity % | barometer mb |
| 20260504211536 | 21 | 203 | 6.4 | 19.3 | 0.00 | 0.00 | 0.00 | 48 | 1015.4 |
| 20260504210031 | 21 | 191 | 4.8 | 20.9 | 0.00 | 0.00 | 0.00 | 47 | 1015.3 |
| 20260504204531 | 21 | 255 | 11.3 | 19.3 | 0.00 | 0.00 | 0.00 | 46 | 1015.6 |
| 20260504203032 | 21 | 207 | 8.0 | 17.7 | 0.00 | 0.00 | 0.00 | 47 | 1015.3 |
| 20260504201529 | 21 | 178 | 11.3 | 22.5 | 0.00 | 0.00 | 0.00 | 48 | 1015.4 |
| 20260504200027 | 21 | 216 | 8.0 | 17.7 | 0.00 | 0.00 | 0.00 | 50 | 1015.6 |
| 20260504194524 | 20 | 215 | 9.7 | 17.7 | 0.00 | 0.00 | 0.00 | 50 | 1015.8 |
| 20260504193025 | 20 | 262 | 3.2 | 16.1 | 0.00 | 0.00 | 0.00 | 51 | 1015.8 |
| 20260504191523 | 20 | 249 | 9.7 | 19.3 | 0.00 | 0.00 | 0.00 | 51 | 1015.8 |
| 20260504190019 | 20 | 184 | 6.4 | 12.9 | 0.00 | 0.00 | 0.00 | 53 | 1016.0 |
| 20260504184519 | 19 | 245 | 8.0 | 17.7 | 0.00 | 0.00 | 0.00 | 52 | 1016.2 |
| 20260504183016 | 18 | 178 | 4.8 | 12.9 | 0.00 | 0.00 | 0.00 | 56 | 1016.2 |
| 20260504181523 | 18 | 268 | 4.8 | 12.9 | 0.00 | 0.00 | 0.00 | 59 | 1016.3 |
| 20260504180011 | 18 | 189 | 1.6 | 11.3 | 0.00 | 0.00 | 0.00 | 59 | 1016.3 |
| 20260504174509 | 17 | 229 | 4.8 | 12.9 | 0.00 | 0.00 | 0.00 | 61 | 1016.2 |
| 20260504173009 | 18 | 160 | 3.2 | 17.7 | 0.00 | 0.00 | 0.00 | 62 | 1016.2 |
| 20260504171508 | 18 | 204 | 1.6 | 16.1 | 0.00 | 0.00 | 0.00 | 62 | 1016.1 |
| 20260504081507 | 15 | 180 | 3.2 | 11.3 | 0.00 | 0.03 | 0.00 | 76 | 1015.5 |
| 20260504044552 | 16 | 195 | 0.0 | 8.0 | 0.00 | 0.03 | 0.03 | 70 | 1015.0 |
| 20260504043049 | 16 | 220 | 0.0 | 6.4 | 0.00 | 0.03 | 0.03 | 69 | 1015.0 |
| 20260504041547 | 16 | 201 | 1.6 | 9.7 | 0.00 | 0.03 | 0.03 | 69 | 1015.0 |
| 20260504040048 | 16 | 238 | 1.6 | 8.0 | 0.00 | 0.03 | 0.03 | 69 | 1014.5 |
| 20260504034546 | 16 | 190 | 0.0 | 8.0 | 0.00 | 0.03 | 0.03 | 68 | 1014.7 |
| 20260504033052 | 16 | 220 | 1.6 | 11.3 | 0.00 | 0.03 | 0.03 | 68 | 1014.9 |
| 20260504031545 | 16 | 213 | 3.2 | 9.7 | 0.00 | 0.03 | 0.03 | 67 | 1014.7 |
| 20260504030046 | 16 | 234 | 1.6 | 8.0 | 0.00 | 0.03 | 0.03 | 66 | 1014.5 |
| 20260504024554 | 16 | 184 | 1.6 | 8.0 | 0.00 | 0.03 | 0.03 | 65 | 1014.3 |
| 20260504023044 | 16 | 272 | 3.2 | 9.7 | 0.00 | 0.03 | 0.03 | 65 | 1014.5 |
| 20260504021549 | 16 | 207 | 1.6 | 11.3 | 0.00 | 0.03 | 0.03 | 64 | 1014.4 |
| 20260504020046 | 17 | 188 | 8.0 | 14.5 | 0.00 | 0.03 | 0.03 | 64 | 1014.2 |
| 20260504014539 | 17 | 238 | 4.8 | 14.5 | 0.00 | 0.03 | 0.03 | 63 | 1014.1 |
| 20260504013047 | 17 | 190 | 6.4 | 14.5 | 0.00 | 0.03 | 0.03 | 62 | 1014.1 |
| 20260504011540 | 18 | 247 | 4.8 | 16.1 | 0.00 | 0.03 | 0.03 | 61 | 1013.7 |
| 20260504010037 | 18 | 214 | 6.4 | 16.1 | 0.00 | 0.03 | 0.03 | 59 | 1013.6 |
| 20260504004543 | 19 | 180 | 9.7 | 19.3 | 0.00 | 0.03 | 0.03 | 57 | 1013.1 |
| 20260504003036 | 20 | 222 | 6.4 | 16.1 | 0.00 | 0.03 | 0.03 | 55 | 1012.9 |
| 20260504001537 | 20 | 160 | 4.8 | 14.5 | 0.00 | 0.03 | 0.03 | 54 | 1012.6 |
| 20260504000035 | 21 | 231 | 4.8 | 12.9 | 0.00 | 0.03 | 0.03 | 53 | 1012.5 |
| 20260503234535 | 22 | 199 | 6.4 | 16.1 | 0.00 | 0.03 | 0.03 | 52 | 1012.6 |
| 20260503233034 | 22 | 144 | 6.4 | 17.7 | 0.00 | 0.03 | 0.03 | 53 | 1012.5 |
| 20260503231532 | 22 | 159 | 8.0 | 17.7 | 0.00 | 0.03 | 0.03 | 53 | 1012.9 |
| 20260503230036 | 21 | 166 | 4.8 | 14.5 | 0.00 | 0.03 | 0.03 | 55 | 1012.9 |
| 20260503224529 | 21 | 144 | 4.8 | 11.3 | 0.00 | 0.03 | 0.03 | 56 | 1013.0 |
| 20260503223027 | 20 | 180 | 8.0 | 16.1 | 0.00 | 0.03 | 0.03 | 58 | 1012.9 |
| 20260503221526 | 20 | 181 | 3.2 | 12.9 | 0.00 | 0.03 | 0.03 | 60 | 1013.2 |
| 20260503220030 | 20 | 172 | 4.8 | 12.9 | 0.00 | 0.03 | 0.03 | 60 | 1013.4 |
| 20260503214525 | 20 | 197 | 6.4 | 12.9 | 0.00 | 0.03 | 0.03 | 60 | 1013.4 |
| 20260503213028 | 20 | 190 | 4.8 | 12.9 | 0.00 | 0.03 | 0.03 | 60 | 1013.4 |